Weather History for Muscle Shoals, AL

Change the Weather History Date:

Wednesday, March 19, 2014

  Actual Average Record
Temperature  
Mean Temperature 56 °F 54 °F  
Max Temperature 66 °F 65 °F 88 °F (1912)
Min Temperature 46 °F 43 °F 20 °F (1923)
Degree Days  
Heating Degree Days 9 11  
Month to date heating degree days 286 260  
Since 1 July heating degree days 3057 2795  
Cooling Degree Days 0 0  
Month to date cooling degree days 0 0  
Year to date cooling degree days 0 1  
Growing Degree Days 6 (Base 50)    
Moisture  
Dew Point 45 °F    
Average Humidity 65    
Maximum Humidity 83    
Minimum Humidity 47    
Precipitation  
Precipitation 0.00 in 0.16 in 2.21 in (1970)
Month to date precipitation 1.66 2.89  
Year to date precipitation 7.35 12.16  
Snow  
Snow 0.00 in - - ()
Month to date snowfall T  
Since 1 July snowfall 1.4  
Snow Depth 0.00 in    
Sea Level Pressure  
Sea Level Pressure 30.02 in    
Wind  
Wind Speed 8 mph (SSW)    
Max Wind Speed 16 mph    
Max Gust Speed 21 mph    
Visibility 9 miles    
Events      
T = Trace of Precipitation, MM = Missing Value Source: NWS Daily Summary

Daily Weather History Graph

Daily Weather History Graph

Search for Another Location

Airport:

Trip Planner

Search our weather history database for the weather conditions in past years. The results will help you decide how hot, cold, wet, or windy it might be!

Date:

Astronomy

Mar. 19, 2014 Rise Set
Actual Time 6:55 AM CDT 7:01 PM CDT
Civil Twilight 6:30 AM CDT 7:26 PM CDT
Nautical Twilight 6:00 AM CDT 7:55 PM CDT
Astronomical Twilight 5:31 AM CDT 8:25 PM CDT
Moon 10:10 PM CDT (3/19) 8:28 AM CDT (3/19)
Length of Visible Light 12h 56m
Length of Day
12h 05m
Waning Gibbous, 91% of the Moon is Illuminated
Mar 19
Waning Gibbous
Mar 23
Last Quarter
Mar 30
New
Apr 7
First Quarter
Apr 15
Full

Hourly Weather History & Observations

Time (CDT) Temp. Dew Point Humidity Pressure Visibility Wind Dir Wind Speed Gust Speed Precip Events Conditions
12:49 AM 48.2 °F 42.8 °F 82% 29.98 in 10.0 mi SE 6.9 mph - N/A   Scattered Clouds
12:53 AM 48.9 °F 43.0 °F 80% 29.98 in 10.0 mi SE 8.1 mph - N/A   Partly Cloudy
1:53 AM 48.0 °F 43.0 °F 83% 29.99 in 10.0 mi SSE 5.8 mph - N/A   Clear
2:53 AM 48.0 °F 43.0 °F 83% 29.98 in 10.0 mi SSE 9.2 mph - N/A   Partly Cloudy
3:33 AM 48.2 °F 44.6 °F 87% 29.97 in 9.0 mi SSE 10.4 mph - N/A   Mostly Cloudy
3:53 AM 50.0 °F 45.0 °F 83% 29.97 in 9.0 mi SSE 8.1 mph - N/A   Mostly Cloudy
4:53 AM 50.0 °F 44.1 °F 80% 29.99 in 9.0 mi South 6.9 mph - N/A   Scattered Clouds
5:26 AM 50.0 °F 44.6 °F 82% 30.00 in 9.0 mi South 9.2 mph - N/A   Mostly Cloudy
5:53 AM 51.1 °F 45.0 °F 80% 30.00 in 9.0 mi South 10.4 mph - N/A   Overcast
6:02 AM 51.8 °F 44.6 °F 76% 30.00 in 9.0 mi South 10.4 mph 17.3 mph N/A   Overcast
6:51 AM 51.8 °F 44.6 °F 76% 30.01 in 9.0 mi South 11.5 mph 18.4 mph N/A   Overcast
6:53 AM 51.1 °F 45.0 °F 80% 30.01 in 9.0 mi South 9.2 mph 18.4 mph N/A   Overcast
7:19 AM 51.8 °F 44.6 °F 76% 30.02 in 8.0 mi South 10.4 mph - N/A   Overcast
7:53 AM 51.1 °F 44.1 °F 77% 30.01 in 7.0 mi South 10.4 mph - N/A   Overcast
8:12 AM 51.8 °F 44.6 °F 76% 30.00 in 7.0 mi South 12.7 mph - N/A   Overcast
8:53 AM 51.1 °F 46.0 °F 83% 30.00 in 5.0 mi SSW 12.7 mph 18.4 mph N/A   Haze
9:23 AM 51.8 °F 46.4 °F 82% 30.01 in 6.0 mi South 13.8 mph - N/A   Haze
9:53 AM 52.0 °F 46.0 °F 80% 30.02 in 7.0 mi SSW 13.8 mph - N/A   Overcast
10:53 AM 52.0 °F 46.9 °F 83% 30.04 in 7.0 mi SW 8.1 mph - N/A   Overcast
11:53 AM 53.1 °F 46.9 °F 80% 30.05 in 6.0 mi SW 10.4 mph - N/A   Haze
12:53 PM 55.0 °F 48.0 °F 77% 30.05 in 6.0 mi SW 12.7 mph - N/A   Haze
1:15 PM 55.4 °F 48.2 °F 77% 30.04 in 7.0 mi SW 11.5 mph - N/A   Overcast
1:53 PM 57.9 °F 48.9 °F 72% 30.02 in 8.0 mi SW 10.4 mph - N/A   Overcast
2:53 PM 61.0 °F 48.9 °F 64% 30.01 in 9.0 mi WSW 16.1 mph 20.7 mph N/A   Overcast
3:11 PM 62.6 °F 50.0 °F 63% 30.01 in 9.0 mi SW 11.5 mph - N/A   Mostly Cloudy
3:53 PM 63.0 °F 48.9 °F 60% 30.00 in 10.0 mi SW 10.4 mph - N/A   Scattered Clouds
4:53 PM 64.9 °F 48.9 °F 56% 29.99 in 10.0 mi SSW 8.1 mph - N/A   Overcast
5:53 PM 64.0 °F 50.0 °F 60% 30.00 in 10.0 mi SW 8.1 mph - N/A   Mostly Cloudy
6:53 PM 62.1 °F 42.1 °F 48% 30.02 in 10.0 mi WNW 9.2 mph - N/A   Scattered Clouds
7:53 PM 57.9 °F 37.0 °F 46% 30.05 in 10.0 mi NW 5.8 mph - N/A   Clear
8:53 PM 55.9 °F 36.0 °F 47% 30.07 in 10.0 mi NNW 3.5 mph - N/A   Clear
9:53 PM 51.1 °F 37.0 °F 59% 30.10 in 10.0 mi NW 4.6 mph - N/A   Clear
10:53 PM 51.1 °F 37.9 °F 61% 30.12 in 10.0 mi WNW 5.8 mph - N/A   Clear
11:53 PM 48.0 °F 37.0 °F 66% 30.14 in 10.0 mi NW 3.5 mph - N/A   Clear